星链-31367 (STARLINK-31367 )

导读 | 星芒AI

STARLINK-31367 是 SpaceX Starlink 卫星互联网项目中的一颗低轨卫星,属于第三代星链卫星(v1.5 或 v2 版本)。该卫星于 2023 年发射,旨在为全球用户提供高速、低延迟的宽带互联网服务。它运行在约 550 公里的轨道高度,采用先进推进系统和激光通信技术,以提高网络效率和卫星间通信能力。该卫星是 SpaceX 扩大全球覆盖、提升网络性能计划的一部分。

基本信息
目录编号:
59408
目录名称:
STARLINK-31367
国际标识:
2024-064L
轨道中心:
EARTH
卫星名称:
星链-31367
卫星全名:
星链-31367 (STARLINK-31367 )
卫星状态:
已陨落 最后检测时间 2025-02-24
发射日期:
2024-04-05 UTC
国别 :
美国 (US)
星等 :
--
轨道信息
数据来源 国际轨道数据
星历时间: 2025-02-21T16:00:02+0800
轨道信息已过期301天
半长轴: 6649.407km
偏心率: 0.0050919
轨道倾角: 42.984°
近地点辐角 170.869°
升交点赤经 28.631°
平近点角 189.765°
近地点: 237.413km
远地点: 305.131km
周期: 89.936分钟
每日圈数: 16.011368
详细信息
固有亮度:
5
最大亮度:
0.3
卫星平台:
Starlink v2.0 mini
覆盖范围:
全球
运营商:
太空探索技术公司
运营商所在国:
美国
制造商(研发单位):
太空探索技术公司
制造商所在国:
美国
使用方式:
暂无
卫星简介
星链(Starlink)计划是由太空探索技术公司(SpaceX)提出的一个巨型低轨卫星互联网星座项目,计划在2019年至2024年间在太空搭建由约1.2万颗卫星组成的“星链”网络,其中1584颗将部署在地球上空550千米处的近地轨道,并从2020年开始工作。该卫星仍在工作。